Погода в Гаруте

Индонезия     7°13′55″S   107°55′01″E
темп.,
°C
ветер,
м/с
пор.,
м/с
влажн.,
%
обл.,
%
осадки,
мм/ч
давл.,
гПа
погр.,
м
5 августа, чт
чт501:00+19ю119937 0.3 101529
04:00+18ю019950 0.0 101581
07:00+19ю119428 0.1 1015141
10:00+25вюв216784 0.0 1015847
13:00+28всв235161 0.8 10121801
16:00+22ссв118182 2.4 101215
19:00+20в018851 2.9 101411
22:00+19зюз119649 0.1 101611
6 августа, пт
пт601:00+18ю019882 0.1 101531
04:00+18ю119835 0.1 101430
07:00+19ю119449 0.1 101691
10:00+26вюв1261100 0.0 1015798
13:00+29в224663 0.0 10111800
16:00+23всв128084 1.8 1012113
19:00+20всв119241 3.1 101412
22:00+19всв009741 0.1 101617
7 августа, сб
сб701:00+19ю019838 0.1 101417
04:00+19ю119636 0.0 101333
07:00+20ю119243 0.0 1015224
10:00+26вюв11636 0.0 1014860
13:00+29юв225178 0.6 10111815
16:00+23юв128285 3.0 101154
19:00+20ююв119535 6.0 101432
22:00+20ю119837 1.6 101666
8 августа, вс
вс801:00+20юв129968 1.8 101497
04:00+19ююв119957 0.5 101338
07:00+20ююв119776 0.5 1015170
10:00+25вюв227242 0.1 1015872
13:00+26всв226486 1.5 10121146
16:00+24в117531 1.1 1011723
19:00+20ююв119776 2.8 101418
22:00+20ююв119974 0.2 101585
9 августа, пн
пн901:00+20ююв119787 0.5 101481
04:00+20ююв1298100 0.4 1013122
07:00+20юв129783 0.6 1014174
10:00+24вюв227245 0.3 1014864
13:00+26юв326751 1.3 10111091
16:00+23юв238366 1.3 1011590
19:00+20ююв239863 2.3 1013203
22:00+19юв239891 0.3 1015200